Weather History for Cairo, IL

Change the Weather History Date:

Wednesday, March 26, 2014

  Actual Average Record
Temperature  
Mean Temperature 38 °F -  
Max Temperature 52 °F 57 °F 84 °F (2007)
Min Temperature 23 °F 41 °F 13 °F (1955)
Degree Days  
Heating Degree Days 28    
Moisture  
Dew Point 17 °F    
Average Humidity 48    
Maximum Humidity 75    
Minimum Humidity 25    
Precipitation  
Precipitation 0.00 in - - ()
Sea Level Pressure  
Sea Level Pressure 30.31 in    
Wind  
Wind Speed 4 mph (ESE)    
Max Wind Speed 12 mph    
Max Gust Speed 18 mph    
Visibility 10 miles    
Events      
Averages and records for this station are not official NWS values.
T = Trace of Precipitation, MM = Missing Value Source: NWS Daily Summary

Daily Weather History Graph

Daily Weather History Graph

Search for Another Location

Airport:

Trip Planner

Search our weather history database for the weather conditions in past years. The results will help you decide how hot, cold, wet, or windy it might be!

Date:

Astronomy

Mar. 26, 2014 Rise Set
Actual Time 6:51 AM CDT 7:14 PM CDT
Civil Twilight 6:25 AM CDT 7:40 PM CDT
Nautical Twilight 5:54 AM CDT 8:10 PM CDT
Astronomical Twilight 5:23 AM CDT 8:41 PM CDT
Moon 3:54 AM CDT 2:58 PM CDT
Length of Visible Light 13h 14m
Length of Day
12h 22m
Waning Crescent, 21% of the Moon is Illuminated
Mar 26
Waning Crescent
Mar 30
New
Apr 7
First Quarter
Apr 15
Full
Apr 22
Last Quarter

Hourly Weather History & Observations

Time (CDT) Temp. Windchill Dew Point Humidity Pressure Visibility Wind Dir Wind Speed Gust Speed Precip Events Conditions
12:15 AM 29.3 °F - 15.4 °F 56% 30.31 in 10.0 mi Calm Calm - N/A   Clear
12:35 AM 30.0 °F - 16.0 °F 56% 30.31 in 10.0 mi Calm Calm - N/A   Clear
12:55 AM 29.5 °F - 15.4 °F 56% 30.32 in 10.0 mi Calm Calm - N/A   Clear
1:15 AM 28.2 °F - 14.7 °F 57% 30.32 in 10.0 mi Calm Calm - N/A   Clear
1:35 AM 27.3 °F - 15.3 °F 61% 30.32 in 10.0 mi Calm Calm - N/A   Clear
1:55 AM 26.1 °F - 17.4 °F 70% 30.32 in 10.0 mi Calm Calm - N/A   Clear
2:15 AM 25.5 °F - 17.8 °F 72% 30.33 in 10.0 mi Calm Calm - N/A   Clear
2:35 AM 24.8 °F 19.1 °F 18.0 °F 75% 30.33 in 10.0 mi NNE 4.6 mph - N/A   Clear
2:55 AM 27.5 °F 20.2 °F 19.0 °F 71% 30.33 in 10.0 mi NNE 6.9 mph - N/A   Clear
3:15 AM 29.1 °F 23.0 °F 16.7 °F 60% 30.33 in 10.0 mi NNE 5.8 mph - N/A   Clear
3:35 AM 28.9 °F 22.8 °F 15.4 °F 57% 30.33 in 10.0 mi NNE 5.8 mph - N/A   Clear
3:55 AM 27.7 °F - 16.5 °F 63% 30.33 in 10.0 mi Calm Calm - N/A   Clear
4:15 AM 28.2 °F 23.1 °F 16.0 °F 60% 30.34 in 10.0 mi NNE 4.6 mph - N/A   Clear
4:35 AM 25.7 °F 21.5 °F 15.4 °F 65% 30.34 in 10.0 mi NE 3.5 mph - N/A   Clear
4:55 AM 25.2 °F 19.5 °F 15.6 °F 67% 30.34 in 10.0 mi NE 4.6 mph - N/A   Clear
5:15 AM 27.3 °F 22.0 °F 16.3 °F 63% 30.35 in 10.0 mi NE 4.6 mph - N/A   Clear
5:35 AM 25.3 °F 21.1 °F 14.9 °F 65% 30.35 in 10.0 mi NE 3.5 mph - N/A   Clear
5:55 AM 24.8 °F 20.5 °F 15.6 °F 68% 30.36 in 10.0 mi NE 3.5 mph - N/A   Clear
6:15 AM 23.9 °F - 16.0 °F 72% 30.36 in 10.0 mi Calm Calm - N/A   Clear
6:35 AM 24.6 °F - 16.7 °F 72% 30.37 in 10.0 mi Calm Calm - N/A   Clear
6:55 AM 24.6 °F - 16.5 °F 71% 30.37 in 10.0 mi Calm Calm - N/A   Clear
7:15 AM 24.3 °F - 16.5 °F 72% 30.38 in 10.0 mi Calm Calm - N/A   Clear
7:35 AM 26.1 °F - 17.8 °F 71% 30.38 in 10.0 mi Calm Calm - N/A   Clear
7:55 AM 30.0 °F 25.2 °F 21.2 °F 70% 30.38 in 10.0 mi East 4.6 mph - N/A   Clear
8:15 AM 32.0 °F 26.4 °F 19.9 °F 61% 30.39 in 10.0 mi East 5.8 mph - N/A   Clear
8:35 AM 33.1 °F 25.5 °F 19.9 °F 59% 30.40 in 10.0 mi ESE 9.2 mph - N/A   Clear
8:55 AM 34.9 °F 28.3 °F 19.4 °F 53% 30.40 in 10.0 mi SE 8.1 mph - N/A   Clear
9:15 AM 36.0 °F 30.3 °F 18.9 °F 50% 30.40 in 10.0 mi ESE 6.9 mph - N/A   Clear
9:35 AM 37.2 °F 30.0 °F 17.6 °F 45% 30.40 in 10.0 mi ESE 10.4 mph - N/A   Clear
9:55 AM 38.3 °F 31.9 °F 15.6 °F 40% 30.40 in 10.0 mi SE 9.2 mph - N/A   Clear
10:15 AM 39.4 °F 34.5 °F 14.5 °F 36% 30.41 in 10.0 mi South 6.9 mph - N/A   Clear
10:35 AM 40.1 °F 34.1 °F 14.9 °F 36% 30.40 in 10.0 mi SE 9.2 mph - N/A   Clear
10:55 AM 40.8 °F 35.0 °F 15.1 °F 35% 30.40 in 10.0 mi SSE 9.2 mph - N/A   Clear
11:15 AM 41.7 °F 37.3 °F 15.1 °F 34% 30.39 in 10.0 mi SE 6.9 mph - N/A   Clear
11:35 AM 42.3 °F 38.6 °F 14.0 °F 32% 30.38 in 10.0 mi SE 5.8 mph - N/A   Clear
11:55 AM 43.2 °F 39.7 °F 14.0 °F 31% 30.36 in 10.0 mi ESE 5.8 mph - N/A   Clear
12:15 PM 44.8 °F 39.4 °F 15.4 °F 31% 30.34 in 10.0 mi SE 10.4 mph - N/A   Clear
12:35 PM 45.3 °F 41.6 °F 15.3 °F 30% 30.33 in 10.0 mi East 6.9 mph - N/A   Clear
12:55 PM 46.8 °F - 15.4 °F 29% 30.33 in 10.0 mi SE 10.4 mph - N/A   Clear
1:15 PM 47.3 °F - 15.1 °F 28% 30.33 in 10.0 mi South 5.8 mph - N/A   Clear
1:35 PM 48.4 °F - 16.5 °F 28% 30.31 in 10.0 mi ESE 10.4 mph - N/A   Clear
1:55 PM 48.9 °F - 16.2 °F 27% 30.30 in 10.0 mi SE 11.5 mph - N/A   Clear
2:15 PM 49.3 °F - 15.6 °F 26% 30.29 in 10.0 mi SSE 5.8 mph 18.4 mph N/A   Clear
2:35 PM 49.8 °F - 16.5 °F 27% 30.28 in 10.0 mi South 10.4 mph 17.3 mph N/A   Clear
2:55 PM 50.0 °F - 15.1 °F 25% 30.27 in 10.0 mi SSE 5.8 mph - N/A   Clear
3:35 PM 51.1 °F - 15.8 °F 25% 30.26 in 10.0 mi South 9.2 mph - N/A   Clear
4:35 PM 52.2 °F - 17.2 °F 25% 30.22 in 10.0 mi South 8.1 mph - N/A   Clear
5:15 PM 52.2 °F - 18.5 °F 27% 30.21 in 10.0 mi SSE 9.2 mph - N/A   Clear
7:15 PM 48.4 °F - 19.4 °F 32% 30.17 in 10.0 mi SE 8.1 mph - N/A   Clear
7:55 PM 48.0 °F - 20.3 °F 33% 30.18 in 10.0 mi SSE 5.8 mph - N/A   Clear
8:55 PM 45.9 °F 43.6 °F 22.1 °F 39% 30.17 in 10.0 mi SE 4.6 mph - N/A   Clear
9:55 PM 46.6 °F - 24.4 °F 42% 30.16 in 10.0 mi SE 3.5 mph - N/A   Scattered Clouds
10:15 PM 46.6 °F - 24.8 °F 43% 30.16 in 10.0 mi SE 4.6 mph - N/A   Mostly Cloudy
10:35 PM 46.8 °F - 23.7 °F 40% 30.15 in 10.0 mi SE 5.8 mph - N/A   Mostly Cloudy
10:55 PM 47.3 °F - 22.1 °F 37% 30.15 in 10.0 mi SE 8.1 mph - N/A   Mostly Cloudy
11:15 PM 47.5 °F - 21.2 °F 35% 30.14 in 10.0 mi SE 9.2 mph - N/A   Overcast
11:35 PM 48.2 °F - 20.8 °F 34% 30.13 in 10.0 mi SE 10.4 mph - N/A   Overcast
11:55 PM 48.6 °F - 21.0 °F 34% 30.12 in 10.0 mi SE 9.2 mph - N/A   Mostly Cloudy